Terminal Aerodrome Forecast
Issued by NWS Lake Charles, LA

Home | Current Version | Previous Version | Text Only | Print | Product List | Glossary On
Versions: 1 2 3 4 5 6 7 8 9 10 11 12 13 14
000
FTUS44 KLCH 272300
TAFLFT
TAF
KLFT 272321Z 2800/2824 VRB05KT P6SM SKC
     FM282000 18007KT P6SM SKC=

USA.gov is the U.S. government's official web portal to all federal, state and local government web resources and services.